Погода в Сорочинске

Погода в Сорочинске : погода сейчас, прогноз погоды и архив. Всё, что Вы хотите узнать о погоде в Сорочинске!

Хотите узнать прогноз погоды в Сорочинске? Тогда Вам сюда: Погода в Сорочинске

Поиск расширенной информации на нашем сайте:

Другие новости

Новости СМИ2

Главная страница сайта

Новости сайта

03.07.2017

Напоминаем, что на нашем специализированном сайте Метеоцентр.Азия вы можете получить высокодетализированные автоматические прогнозы погоды по пунктам России, СНГ и мира в авиационном формате (включающие направление и скорость ветра, видимость, явления погоды, количество и форму облачности, нижнюю и верхнюю границу облачности).


Погода в Сорочинске - сегодня

Время (UTC), дата Ветер
(°,м/с) 
Видим.   Явления Облачность Т
(°С)
Тd
(°С)
f(%) Тe
(°С)
Pmin
(гПа)
dP
(гПа)
Po
(мм)
O2
(г/м3)
Тmin Tmax R s Состояние
почвы
09 18.07.17 200 (Ю) 20000 м    10/4 1000 м средняя 
[Sc|Ac trans]
+28.7 +13.3 39 +35  1014.7  -0.1  750  271           
12 18.07.17 270 (З) 20000 м    10/6 1000 м средняя 
[Sc|Ac trans]
+29 +12.1 35 +33  1014.7  0.1  750  271           
15 18.07.17 тихо ()   20000 м    10/6 1000 м средняя 
[Sc|Ac und]
+27.1 +12 39 +31  1013.6  -1.2  750  273    +30.9       
18 18.07.17 090 (В) 20000 м    3/0 средняя 
[Ac trans]
+20.7 +14.4 67 +28  1014.3  0.4  750  278           
21 18.07.17 090 (В) 20000 м    ясно 
+18.6 +14.7 78 +28  1014.6  0.2  750  280           
00 19.07.17 250 (З) 20000 м    4/3 1000 м средняя 
[Sc|Ac cast]
+16.6 +14.3 86 +25  1014.3  -0.3  750  282           
03 19.07.17 190 (Ю) 20000 м    4/3 1000 м верхняя 
[Sc|Cc]
+19.1 +14.4 74 +29  1014.1  0.1  750  279  +14.3        сухая 
06 19.07.17 060 (СВ) 20000 м    3/0 верхняя 
[Cc]
+27.3 +15.8 49 +37  1012.8  -0.9  749  271           
09 19.07.17 330 (СЗ) 20000 м    10/4 1000 м кучево-дожд., средняя, верхняя 
[Cb cap|Ac cast|Ci]
+30.1 +13.4 36 +36  1012.2  -0.4  749  269           
12 19.07.17 310 (СЗ) 20000 м    6/3 1500 м средняя, верхняя 
[Cu hum|Ac cast|Ci fib]
+30.3 +15 39 +39  1012.1  -0.1  749  268           
15 19.07.17 340 (С) 20000 м    6/3 1500 м средняя, верхняя 
[Cu hum|Ac cast|Ci fib]
+27.2 +17.1 54 +40  1012.6  0.4  749  271    +30.8       
18 19.07.17 330 (СЗ) 20000 м    3/0 верхняя 
[Ci fib]
+22.1 +16.1 69 +33  1013.9  750  276           
21 19.07.17 270 (З) 20000 м    ясно 
+18.5 +15 80 +29  1014.1  750  280           
00 20.07.17 270 (З) 20000 м    ясно 
+16.1 +14.4 90 +25  1014.2  0.2  750  282           
03 20.07.17 050 (СВ) 20000 м    10/0 верхняя 
[Cs]
+19.7 +15.8 78 +31  1014.6  0.6  750  279  +15.9        сухая 
06 20.07.17 070 (В) 20000 м    10/3 1000 м средняя 
[Sc|Ac trans]
+23.6 +16.9 66 +36  1014.3  0.1  750  274           
09 20.07.17 030 (СВ) 20000 м    10/6 1000 м средняя 
[Sc|Ac As]
+24.8 +14.3 52 +32  1014.4  0.1  750  274           
12 20.07.17 040 (СВ) 20000 м    10/6 1000 м средняя 
[Sc|Ac trans]
+24.5 +15.3 57 +34  1013.9  -0.5  750  274           
15 20.07.17 040 (СВ) 20000 м    3/0 средняя 
[Ac lent]
+24.6 +15 55 +33  1013.1  -0.8  749  274    +25.6       
18 20.07.17 100 (В) 20000 м    ясно 
+19.9 +14.9 73 +30  1013.5  -0.1  749  278           
21 20.07.17 100 (В) 20000 м    ясно 
+17 +13.3 79 +24  1013.4  -0.2  749  281           
00 21.07.17 тихо ()   20000 м    4/0 верхняя 
[Ci]
+14.7 +12.6 87 +20  1013.2  -0.4  749  284           
03 21.07.17 тихо ()   20000 м    10/3 1500 м средняя, верхняя 
[Sc|Ac cast|Ci sp]
+20.5 +14.7 69 +29  1012.9  749  278  +14.1        сухая 
06 21.07.17 070 (В) 20000 м    10/8 1000 м средняя 
[Sc|Ac As]
+21.3 +15.8 71 +31  1013.3  0.4  749  277           
09 21.07.17 040 (СВ) 20000 м  {ливн. осадки}  10/10 930 м кучево-дожд. 
[Cb cap]
+21.3 +16.9 76 +33  1014  0.7  750  276           
Время (UTC), дата Ветер
(°,м/с) 
Видим.   Явления Облачность Т
(°С)
Тd
(°С)
f(%) Тe
(°С)
Pmin
(гПа)
dP
(гПа)
Po
(мм)
O2
(г/м3)
Тmin Tmax R s Состояние
почвы

Для получения пояснительной информации подведите курсор к названию столбца.

ПОГОДА в Сорочинске - архив

Всё, что Вы хотите узнать о погоде в Сорочинске - удобно и подробно!

Выберите нужную дату (начиная с 1 января 2015* года) и нажмите кнопку "Найти".
Будут отображены архивные сводки погоды по пункту Сорочинск, начиная с указанной даты.


Отображать данные в формате CSV (для использования в таблицах Excel)


Внимание! Наш архив погоды предназначен исключительно для личного некоммерческого использования в познавательных целях. Если Вам необходимы официальные справки о состоянии погоды (для производственных, юридических, коммерческих и т.п. целей), обращайтесь в органы Росгидромета.

*Примечание: данная дата относится к архиву по метеостанциям СССР (Россия, СНГ, Балтия).
Архив по метеостанциям Зарубежной Европы и Азии (кроме Китая) хранится 10 дней, по другим регионам земного шара (Китай, Африка, Америка, Австралия, Океания) - 1 день.

Сорочинск - район местоположения метеостанции


Название, широта, долгота, высота метеостанции:
Сорочинск 52.4°ш. 53.1°д. 123 м над ур. моря [Российская Федерация]

Дополнительная информация

В oтличие oт бoльшинства пoгoдных сайтoв мы публикуем пoдрoбную метеoинфoрмацию в детальнoм прoфессиoнальнoм фoрмате.

Характеристики температуры и влажнoсти вoздуха измеряются на высoте 2 м в тени вдали oт зданий и деревьев.
Скoрoсть ветра измеряется на высoте 10 м (на урoвне рoста челoвека скoрoсть ветра ниже в 1.5-2 раза). Если метеoстанция нахoдится в гoрoде или в лесу, тo скoрoсть ветра занижена на 2-4 м/с пo сравнению с oткрытым местoм. Скoрoсть ветра над акватoриями крупных рек и oзёр, а также на вершинах хoлмoв на 2-5 м/с выше, чем в oбычных услoвиях.
Атмoсфернoе давление в разных тoчках местнoсти мoжет значительнo oтличаться oт давления на метеoстанции, в зависимoсти oт услoвий рельефа (при пoдъёме на 10 м давление пoнижается примернo на 1 мм рт.ст.).